Time,TemperatureF,DewpointF,PressureIn,WindDirection,WindDirectionDegrees,WindSpeedMPH,WindSpeedGustMPH,Humidity,HourlyPrecipIn,Conditions,Clouds,dailyrainin,SoftwareType,DateUTC
2013-03-22 00:00:00,26.3,20.9,29.89,WNW,293,4.9,8.3,80,0.00,,,0.00,WUHU216HW,2013-03-22 04:00:00,
2013-03-22 00:05:00,26.3,20.9,29.89,West,270,4.7,8.3,80,0.00,,,0.00,WUHU216HW,2013-03-22 04:05:00,
2013-03-22 00:10:00,26.3,20.9,29.89,WNW,293,5.4,6.9,80,0.00,,,0.00,WUHU216HW,2013-03-22 04:10:00,
2013-03-22 00:15:00,26.1,20.8,29.89,West,270,2.5,6.9,80,0.00,,,0.00,WUHU216HW,2013-03-22 04:15:00,
2013-03-22 00:20:00,26.1,20.8,29.89,WNW,293,4.9,6.3,80,0.00,,,0.00,WUHU216HW,2013-03-22 04:20:00,
2013-03-22 00:25:00,26.1,20.8,29.89,WNW,293,5.1,6.9,80,0.00,,,0.00,WUHU216HW,2013-03-22 04:25:00,
2013-03-22 00:30:00,25.9,20.6,29.89,West,270,3.1,6.9,80,0.00,,,0.00,WUHU216HW,2013-03-22 04:30:00,
2013-03-22 00:35:00,25.9,20.6,29.89,West,270,1.8,6.9,80,0.00,,,0.00,WUHU216HW,2013-03-22 04:35:00,
2013-03-22 00:40:00,25.9,20.3,29.89,West,270,4.5,5.6,79,0.00,,,0.00,WUHU216HW,2013-03-22 04:40:00,
2013-03-22 00:45:00,25.9,20.3,29.89,WNW,293,8.7,8.7,79,0.00,,,0.00,WUHU216HW,2013-03-22 04:45:00,
2013-03-22 00:50:00,25.7,20.1,29.89,WNW,293,4.0,8.7,79,0.00,,,0.00,WUHU216HW,2013-03-22 04:50:00,
2013-03-22 00:55:00,25.7,19.8,29.89,West,270,3.6,8.7,78,0.00,,,0.00,WUHU216HW,2013-03-22 04:55:00,
2013-03-22 01:00:00,25.7,19.8,29.89,West,270,3.1,6.9,78,0.00,,,0.00,WUHU216HW,2013-03-22 05:00:00,
2013-03-22 01:05:00,25.7,19.8,29.89,West,270,3.8,6.9,78,0.00,,,0.00,WUHU216HW,2013-03-22 05:05:00,
2013-03-22 01:10:00,25.7,19.8,29.89,West,270,4.0,6.3,78,0.00,,,0.00,WUHU216HW,2013-03-22 05:10:00,
2013-03-22 01:15:00,25.6,19.4,29.89,NW,315,6.3,6.3,77,0.00,,,0.00,WUHU216HW,2013-03-22 05:15:00,
2013-03-22 01:20:00,25.7,19.5,29.89,NW,315,5.6,10.5,77,0.00,,,0.00,WUHU216HW,2013-03-22 05:20:00,
2013-03-22 01:25:00,25.6,19.4,29.89,West,270,7.6,10.5,77,0.00,,,0.00,WUHU216HW,2013-03-22 05:25:00,
2013-03-22 01:30:00,25.6,19.4,29.89,WNW,293,6.0,9.8,77,0.00,,,0.00,WUHU216HW,2013-03-22 05:30:00,
2013-03-22 01:35:00,25.7,19.5,29.89,WNW,293,5.4,9.8,77,0.00,,,0.00,WUHU216HW,2013-03-22 05:35:00,
2013-03-22 01:40:00,25.7,19.2,29.89,West,270,6.0,9.2,76,0.00,,,0.00,WUHU216HW,2013-03-22 05:40:00,
2013-03-22 01:45:00,25.6,19.0,29.89,WNW,293,4.0,8.5,76,0.00,,,0.00,WUHU216HW,2013-03-22 05:45:00,
2013-03-22 01:50:00,25.6,19.0,29.89,West,270,6.0,8.1,76,0.00,,,0.00,WUHU216HW,2013-03-22 05:50:00,
2013-03-22 01:55:00,25.6,19.0,29.89,North,0,3.6,7.6,76,0.00,,,0.00,WUHU216HW,2013-03-22 05:55:00,
2013-03-22 02:00:00,25.6,19.0,29.89,NNW,338,2.5,8.1,76,0.00,,,0.00,WUHU216HW,2013-03-22 06:00:00,
2013-03-22 02:05:00,25.6,19.0,29.89,WNW,293,3.6,8.1,76,0.00,,,0.00,WUHU216HW,2013-03-22 06:05:00,
2013-03-22 02:10:00,25.6,19.0,29.89,WNW,293,5.6,7.2,76,0.00,,,0.00,WUHU216HW,2013-03-22 06:10:00,
2013-03-22 02:15:00,25.6,18.7,29.89,WNW,293,6.9,7.6,75,0.00,,,0.00,WUHU216HW,2013-03-22 06:15:00,
2013-03-22 02:20:00,25.6,19.0,29.89,NW,315,4.0,7.6,76,0.00,,,0.00,WUHU216HW,2013-03-22 06:20:00,
2013-03-22 02:25:00,25.6,19.0,29.89,WNW,293,4.9,7.4,76,0.00,,,0.00,WUHU216HW,2013-03-22 06:25:00,
2013-03-22 02:30:00,25.6,19.0,29.89,NNW,338,3.6,7.4,76,0.00,,,0.00,WUHU216HW,2013-03-22 06:30:00,
2013-03-22 02:35:00,25.6,18.7,29.89,West,270,6.9,10.1,75,0.00,,,0.00,WUHU216HW,2013-03-22 06:35:00,
2013-03-22 02:40:00,25.6,19.0,29.89,NW,315,3.1,10.1,76,0.00,,,0.00,WUHU216HW,2013-03-22 06:40:00,
2013-03-22 02:45:00,25.6,18.7,29.90,NNW,338,4.7,10.1,75,0.00,,,0.00,WUHU216HW,2013-03-22 06:45:00,
2013-03-22 02:50:00,25.6,18.7,29.89,West,270,2.5,10.1,75,0.00,,,0.00,WUHU216HW,2013-03-22 06:50:00,
2013-03-22 02:55:00,25.6,18.7,29.89,NW,315,4.3,8.3,75,0.00,,,0.00,WUHU216HW,2013-03-22 06:55:00,
2013-03-22 03:00:00,25.6,18.7,29.90,NNW,338,5.6,8.5,75,0.00,,,0.00,WUHU216HW,2013-03-22 07:00:00,
2013-03-22 03:05:00,25.6,18.7,29.89,NW,315,2.9,9.2,75,0.00,,,0.00,WUHU216HW,2013-03-22 07:05:00,
2013-03-22 03:10:00,25.6,18.7,29.90,West,270,6.0,9.2,75,0.00,,,0.00,WUHU216HW,2013-03-22 07:10:00,
2013-03-22 03:15:00,25.4,18.6,29.90,WNW,293,4.7,8.1,75,0.00,,,0.00,WUHU216HW,2013-03-22 07:15:00,
2013-03-22 03:20:00,25.4,18.6,29.90,NW,315,3.8,8.7,75,0.00,,,0.00,WUHU216HW,2013-03-22 07:20:00,
2013-03-22 03:25:00,25.4,18.6,29.90,NNW,338,6.0,8.7,75,0.00,,,0.00,WUHU216HW,2013-03-22 07:25:00,
2013-03-22 03:30:00,25.4,18.6,29.90,North,0,4.0,9.8,75,0.00,,,0.00,WUHU216HW,2013-03-22 07:30:00,
2013-03-22 03:35:00,25.4,18.6,29.90,West,270,1.8,9.8,75,0.00,,,0.00,WUHU216HW,2013-03-22 07:35:00,
2013-03-22 03:40:00,25.4,18.6,29.90,NNW,338,2.0,8.5,75,0.00,,,0.00,WUHU216HW,2013-03-22 07:40:00,
2013-03-22 03:45:00,25.4,18.6,29.90,NNW,338,5.1,8.5,75,0.00,,,0.00,WUHU216HW,2013-03-22 07:45:00,
2013-03-22 03:50:00,25.4,18.2,29.90,NNW,338,4.5,9.2,74,0.00,,,0.00,WUHU216HW,2013-03-22 07:50:00,
2013-03-22 03:55:00,25.4,18.2,29.90,WNW,293,6.7,10.1,74,0.00,,,0.00,WUHU216HW,2013-03-22 07:55:00,
2013-03-22 04:00:00,25.4,18.2,29.90,West,270,2.2,10.1,74,0.00,,,0.00,WUHU216HW,2013-03-22 08:00:00,
2013-03-22 04:05:00,25.2,18.0,29.90,SW,225,4.0,8.5,74,0.00,,,0.00,WUHU216HW,2013-03-22 08:05:00,
2013-03-22 04:10:00,25.2,18.0,29.90,West,270,2.9,7.6,74,0.00,,,0.00,WUHU216HW,2013-03-22 08:10:00,
2013-03-22 04:15:00,25.4,18.2,29.90,NW,315,4.9,10.3,74,0.00,,,0.00,WUHU216HW,2013-03-22 08:15:00,
2013-03-22 04:20:00,25.4,18.2,29.90,WNW,293,3.4,10.3,74,0.00,,,0.00,WUHU216HW,2013-03-22 08:20:00,
2013-03-22 04:25:00,25.2,18.0,29.90,NW,315,4.0,8.7,74,0.00,,,0.00,WUHU216HW,2013-03-22 08:25:00,
2013-03-22 04:30:00,25.2,18.0,29.90,West,270,6.3,7.2,74,0.00,,,0.00,WUHU216HW,2013-03-22 08:30:00,
2013-03-22 04:35:00,25.2,18.0,29.90,NNW,338,6.3,7.6,74,0.00,,,0.00,WUHU216HW,2013-03-22 08:35:00,
2013-03-22 04:40:00,25.2,18.0,29.90,WNW,293,2.5,7.6,74,0.00,,,0.00,WUHU216HW,2013-03-22 08:40:00,
2013-03-22 04:45:00,25.2,18.0,29.90,NW,315,2.9,8.5,74,0.00,,,0.00,WUHU216HW,2013-03-22 08:45:00,
2013-03-22 04:50:00,25.4,18.2,29.90,WNW,293,3.1,8.5,74,0.00,,,0.00,WUHU216HW,2013-03-22 08:50:00,
2013-03-22 04:55:00,25.2,18.0,29.90,WSW,248,2.5,8.5,74,0.00,,,0.00,WUHU216HW,2013-03-22 08:55:00,
2013-03-22 05:00:00,25.2,18.0,29.90,NW,315,7.6,9.4,74,0.00,,,0.00,WUHU216HW,2013-03-22 09:00:00,
2013-03-22 05:05:00,25.4,17.9,29.90,WSW,248,1.6,9.4,73,0.00,,,0.00,WUHU216HW,2013-03-22 09:05:00,
2013-03-22 05:10:00,25.4,17.9,29.90,NW,315,5.6,9.8,73,0.00,,,0.00,WUHU216HW,2013-03-22 09:10:00,
2013-03-22 05:15:00,25.4,18.2,29.90,WNW,293,4.0,9.8,74,0.00,,,0.00,WUHU216HW,2013-03-22 09:15:00,
2013-03-22 05:20:00,25.4,18.2,29.90,NNW,338,3.6,6.0,74,0.00,,,0.00,WUHU216HW,2013-03-22 09:20:00,
2013-03-22 05:25:00,25.4,17.9,29.90,NW,315,9.2,13.0,73,0.00,,,0.00,WUHU216HW,2013-03-22 09:25:00,
2013-03-22 05:30:00,25.4,17.9,29.90,WNW,293,6.5,13.0,73,0.00,,,0.00,WUHU216HW,2013-03-22 09:30:00,
2013-03-22 05:35:00,25.4,17.9,29.90,SW,225,5.6,9.8,73,0.00,,,0.00,WUHU216HW,2013-03-22 09:35:00,
2013-03-22 05:40:00,25.4,17.9,29.90,SW,225,10.3,10.3,73,0.00,,,0.00,WUHU216HW,2013-03-22 09:40:00,
2013-03-22 05:45:00,25.6,18.1,29.90,WNW,293,3.4,13.2,73,0.00,,,0.00,WUHU216HW,2013-03-22 09:45:00,
2013-03-22 05:50:00,25.6,18.1,29.90,WNW,293,4.3,13.2,73,0.00,,,0.00,WUHU216HW,2013-03-22 09:50:00,
2013-03-22 05:55:00,25.6,18.1,29.90,NW,315,4.9,10.7,73,0.00,,,0.00,WUHU216HW,2013-03-22 09:55:00,
2013-03-22 06:00:00,25.6,18.1,29.91,WSW,248,6.7,10.7,73,0.00,,,0.00,WUHU216HW,2013-03-22 10:00:00,
2013-03-22 06:05:00,25.6,18.1,29.91,NW,315,6.3,10.3,73,0.00,,,0.00,WUHU216HW,2013-03-22 10:05:00,
2013-03-22 06:10:00,25.6,18.1,29.91,West,270,7.8,12.5,73,0.00,,,0.00,WUHU216HW,2013-03-22 10:10:00,
2013-03-22 06:15:00,25.6,18.1,29.91,NNW,338,7.4,12.5,73,0.00,,,0.00,WUHU216HW,2013-03-22 10:15:00,
2013-03-22 06:20:00,25.6,17.7,29.91,WNW,293,5.4,12.8,72,0.00,,,0.00,WUHU216HW,2013-03-22 10:20:00,
2013-03-22 06:25:00,25.6,17.7,29.91,WNW,293,7.4,12.8,72,0.00,,,0.00,WUHU216HW,2013-03-22 10:25:00,
2013-03-22 06:30:00,25.6,18.1,29.91,NE,45,4.0,11.6,73,0.00,,,0.00,WUHU216HW,2013-03-22 10:30:00,
2013-03-22 06:35:00,25.6,18.1,29.91,NW,315,6.9,10.5,73,0.00,,,0.00,WUHU216HW,2013-03-22 10:35:00,
2013-03-22 06:40:00,25.6,18.1,29.91,NNW,338,4.5,9.8,73,0.00,,,0.00,WUHU216HW,2013-03-22 10:40:00,
2013-03-22 06:45:00,25.6,18.1,29.91,WNW,293,5.4,9.6,73,0.00,,,0.00,WUHU216HW,2013-03-22 10:45:00,
2013-03-22 06:50:00,25.6,18.1,29.91,West,270,3.6,7.2,73,0.00,,,0.00,WUHU216HW,2013-03-22 10:50:00,
2013-03-22 06:55:00,25.6,18.1,29.92,ENE,68,2.9,7.2,73,0.00,,,0.00,WUHU216HW,2013-03-22 10:55:00,
2013-03-22 07:00:00,25.6,18.1,29.92,WSW,248,6.5,9.6,73,0.00,,,0.00,WUHU216HW,2013-03-22 11:00:00,
2013-03-22 07:05:00,25.6,18.1,29.92,NNW,338,3.8,10.7,73,0.00,,,0.00,WUHU216HW,2013-03-22 11:05:00,
2013-03-22 07:10:00,25.6,18.1,29.92,NW,315,7.6,10.7,73,0.00,,,0.00,WUHU216HW,2013-03-22 11:10:00,
2013-03-22 07:15:00,25.6,18.1,29.92,NNE,23,3.4,7.6,73,0.00,,,0.00,WUHU216HW,2013-03-22 11:15:00,
2013-03-22 07:20:00,25.6,18.1,29.93,West,270,6.5,11.0,73,0.00,,,0.00,WUHU216HW,2013-03-22 11:20:00,
2013-03-22 07:25:00,25.6,18.1,29.93,West,270,4.7,11.0,73,0.00,,,0.00,WUHU216HW,2013-03-22 11:25:00,
2013-03-22 07:30:00,25.6,18.1,29.93,North,0,4.7,11.4,73,0.00,,,0.00,WUHU216HW,2013-03-22 11:30:00,
2013-03-22 07:35:00,25.6,18.1,29.93,NW,315,4.5,11.4,73,0.00,,,0.00,WUHU216HW,2013-03-22 11:35:00,
2013-03-22 07:40:00,25.6,18.1,29.93,WNW,293,7.2,11.4,73,0.00,,,0.00,WUHU216HW,2013-03-22 11:40:00,
2013-03-22 07:45:00,25.6,18.1,29.93,WNW,293,4.9,9.2,73,0.00,,,0.00,WUHU216HW,2013-03-22 11:45:00,
2013-03-22 07:50:00,25.6,18.1,29.93,WNW,293,4.0,7.2,73,0.00,,,0.00,WUHU216HW,2013-03-22 11:50:00,
2013-03-22 07:55:00,25.6,18.1,29.93,NW,315,1.6,5.1,73,0.00,,,0.00,WUHU216HW,2013-03-22 11:55:00,
2013-03-22 08:00:00,25.6,18.1,29.94,North,0,3.4,6.5,73,0.00,,,0.00,WUHU216HW,2013-03-22 12:00:00,
2013-03-22 08:05:00,25.6,18.1,29.94,NNW,338,1.8,6.9,73,0.00,,,0.00,WUHU216HW,2013-03-22 12:05:00,
2013-03-22 08:10:00,25.7,18.3,29.94,NW,315,2.0,9.8,73,0.00,,,0.00,WUHU216HW,2013-03-22 12:10:00,
2013-03-22 08:15:00,25.7,18.3,29.93,WNW,293,3.4,9.8,73,0.00,,,0.00,WUHU216HW,2013-03-22 12:15:00,
2013-03-22 08:20:00,25.9,18.4,29.93,NNW,338,2.2,6.9,73,0.00,,,0.00,WUHU216HW,2013-03-22 12:20:00,
2013-03-22 08:25:00,25.9,18.7,29.94,WNW,293,3.4,4.5,74,0.00,,,0.00,WUHU216HW,2013-03-22 12:25:00,
2013-03-22 08:30:00,25.9,18.7,29.94,NW,315,4.9,8.7,74,0.00,,,0.00,WUHU216HW,2013-03-22 12:30:00,
2013-03-22 08:35:00,26.1,18.5,29.93,NNW,338,4.0,8.7,73,0.00,,,0.00,WUHU216HW,2013-03-22 12:35:00,
2013-03-22 08:40:00,26.3,19.1,29.93,North,0,5.8,6.9,74,0.00,,,0.00,WUHU216HW,2013-03-22 12:40:00,
2013-03-22 08:45:00,26.3,19.1,29.93,NNW,338,2.9,6.9,74,0.00,,,0.00,WUHU216HW,2013-03-22 12:45:00,
2013-03-22 08:50:00,26.5,19.3,29.93,NW,315,3.1,6.9,74,0.00,,,0.00,WUHU216HW,2013-03-22 12:50:00,
2013-03-22 08:55:00,26.5,19.3,29.93,ENE,68,0.4,6.7,74,0.00,,,0.00,WUHU216HW,2013-03-22 12:55:00,
2013-03-22 09:00:00,26.6,19.5,29.93,North,0,4.7,5.4,74,0.00,,,0.00,WUHU216HW,2013-03-22 13:00:00,
2013-03-22 09:05:00,26.8,19.6,29.93,North,0,4.0,5.4,74,0.00,,,0.00,WUHU216HW,2013-03-22 13:05:00,
2013-03-22 09:10:00,27.0,19.8,29.93,North,0,1.8,6.9,74,0.00,,,0.00,WUHU216HW,2013-03-22 13:10:00,
2013-03-22 09:15:00,27.2,20.0,29.93,West,270,2.7,6.9,74,0.00,,,0.00,WUHU216HW,2013-03-22 13:15:00,
2013-03-22 09:20:00,27.4,20.2,29.93,NW,315,2.5,6.3,74,0.00,,,0.00,WUHU216HW,2013-03-22 13:20:00,
2013-03-22 09:25:00,27.5,20.6,29.93,NW,315,4.9,6.3,75,0.00,,,0.00,WUHU216HW,2013-03-22 13:25:00,
2013-03-22 09:31:00,27.7,20.5,29.93,West,270,2.5,6.3,74,0.00,,,0.00,WUHU216HW,2013-03-22 13:31:00,
2013-03-22 09:36:00,28.1,20.9,29.93,WNW,293,4.3,5.6,74,0.00,,,0.00,WUHU216HW,2013-03-22 13:36:00,
2013-03-22 09:41:00,28.1,20.9,29.93,NW,315,3.4,5.8,74,0.00,,,0.00,WUHU216HW,2013-03-22 13:41:00,
2013-03-22 09:46:00,28.4,21.3,29.93,NNW,338,4.5,5.8,74,0.00,,,0.00,WUHU216HW,2013-03-22 13:46:00,
2013-03-22 09:51:00,28.4,21.3,29.93,WSW,248,3.8,6.3,74,0.00,,,0.00,WUHU216HW,2013-03-22 13:51:00,
2013-03-22 09:56:00,28.6,21.3,29.93,West,270,4.7,6.3,74,0.00,,,0.00,WUHU216HW,2013-03-22 13:56:00,
2013-03-22 10:01:00,28.8,21.5,29.93,NNW,338,4.0,5.6,74,0.00,,,0.00,WUHU216HW,2013-03-22 14:01:00,
2013-03-22 10:06:00,29.0,21.4,29.93,WNW,293,6.0,7.6,73,0.00,,,0.00,WUHU216HW,2013-03-22 14:06:00,
2013-03-22 10:11:00,29.2,21.6,29.93,NNW,338,1.1,7.6,73,0.00,,,0.00,WUHU216HW,2013-03-22 14:11:00,
2013-03-22 10:16:00,29.2,21.6,29.93,North,0,6.3,7.2,73,0.00,,,0.00,WUHU216HW,2013-03-22 14:16:00,
2013-03-22 10:21:00,29.3,21.8,29.93,West,270,4.7,7.2,73,0.00,,,0.00,WUHU216HW,2013-03-22 14:21:00,
2013-03-22 10:26:00,29.5,21.6,29.93,WSW,248,5.4,8.5,72,0.00,,,0.00,WUHU216HW,2013-03-22 14:26:00,
2013-03-22 10:31:00,29.9,22.2,29.92,West,270,4.7,8.5,73,0.00,,,0.00,WUHU216HW,2013-03-22 14:31:00,
2013-03-22 10:36:00,30.1,22.1,29.93,NNE,23,5.4,6.7,72,0.00,,,0.00,WUHU216HW,2013-03-22 14:36:00,
2013-03-22 10:41:00,30.2,21.6,29.93,WNW,293,4.9,9.8,70,0.00,,,0.00,WUHU216HW,2013-03-22 14:41:00,
2013-03-22 10:46:00,30.2,22.0,29.92,NNW,338,3.1,9.8,71,0.00,,,0.00,WUHU216HW,2013-03-22 14:46:00,
2013-03-22 10:51:00,30.2,22.0,29.93,WNW,293,5.8,9.8,71,0.00,,,0.00,WUHU216HW,2013-03-22 14:51:00,
2013-03-22 10:56:00,30.4,21.8,29.93,West,270,6.0,8.3,70,0.00,,,0.00,WUHU216HW,2013-03-22 14:56:00,
2013-03-22 11:01:00,30.4,21.8,29.92,NNE,23,2.2,8.3,70,0.00,,,0.00,WUHU216HW,2013-03-22 15:01:00,
2013-03-22 11:06:00,30.6,22.0,29.93,WSW,248,5.4,8.5,70,0.00,,,0.00,WUHU216HW,2013-03-22 15:06:00,
2013-03-22 11:11:00,30.6,22.0,29.93,West,270,7.4,8.7,70,0.00,,,0.00,WUHU216HW,2013-03-22 15:11:00,
2013-03-22 11:16:00,30.8,22.1,29.93,NNW,338,5.8,8.7,70,0.00,,,0.00,WUHU216HW,2013-03-22 15:16:00,
2013-03-22 11:21:00,31.1,22.5,29.93,NW,315,3.4,8.7,70,0.00,,,0.00,WUHU216HW,2013-03-22 15:21:00,
2013-03-22 11:26:00,31.3,22.7,29.93,NNW,338,4.7,8.5,70,0.00,,,0.00,WUHU216HW,2013-03-22 15:26:00,
2013-03-22 11:31:00,31.7,23.0,29.93,NW,315,2.9,8.5,70,0.00,,,0.00,WUHU216HW,2013-03-22 15:31:00,
2013-03-22 11:36:00,31.7,22.7,29.93,WNW,293,6.5,6.7,69,0.00,,,0.00,WUHU216HW,2013-03-22 15:36:00,
2013-03-22 11:41:00,31.7,22.7,29.94,South,180,2.5,6.7,69,0.00,,,0.00,WUHU216HW,2013-03-22 15:41:00,
2013-03-22 11:46:00,31.9,22.9,29.94,West,270,4.9,6.7,69,0.00,,,0.00,WUHU216HW,2013-03-22 15:46:00,
2013-03-22 11:51:00,31.9,22.9,29.94,NNW,338,1.8,8.5,69,0.00,,,0.00,WUHU216HW,2013-03-22 15:51:00,
2013-03-22 11:56:00,32.0,22.3,29.94,NNW,338,6.7,10.3,67,0.00,,,0.00,WUHU216HW,2013-03-22 15:56:00,
2013-03-22 12:01:00,32.0,22.7,29.94,WSW,248,5.4,10.3,68,0.00,,,0.00,WUHU216HW,2013-03-22 16:01:00,
2013-03-22 12:06:00,32.0,23.0,29.94,WNW,293,4.0,6.9,69,0.00,,,0.00,WUHU216HW,2013-03-22 16:06:00,
2013-03-22 12:11:00,32.4,23.1,29.94,WNW,293,5.4,11.4,68,0.00,,,0.00,WUHU216HW,2013-03-22 16:11:00,
2013-03-22 12:16:00,32.4,23.1,29.93,West,270,3.4,11.4,68,0.00,,,0.00,WUHU216HW,2013-03-22 16:16:00,
2013-03-22 12:21:00,32.8,23.3,29.94,NNW,338,5.4,9.2,68,0.00,,,0.00,WUHU216HW,2013-03-22 16:21:00,
2013-03-22 12:26:00,32.8,23.3,29.94,WNW,293,4.7,9.2,68,0.00,,,0.00,WUHU216HW,2013-03-22 16:26:00,
2013-03-22 12:31:00,33.1,23.3,29.93,NW,315,4.0,9.8,67,0.00,,,0.00,WUHU216HW,2013-03-22 16:31:00,
2013-03-22 12:36:00,33.3,23.5,29.94,West,270,2.7,9.8,67,0.00,,,0.00,WUHU216HW,2013-03-22 16:36:00,
2013-03-22 12:41:00,33.1,23.0,29.93,West,270,7.2,9.2,66,0.00,,,0.00,WUHU216HW,2013-03-22 16:41:00,
2013-03-22 12:46:00,33.1,23.3,29.93,NNW,338,2.7,9.2,67,0.00,,,0.00,WUHU216HW,2013-03-22 16:46:00,
2013-03-22 12:51:00,33.7,23.8,29.93,WNW,293,6.3,8.5,67,0.00,,,0.00,WUHU216HW,2013-03-22 16:51:00,
2013-03-22 12:56:00,33.8,23.6,29.93,West,270,4.7,8.5,66,0.00,,,0.00,WUHU216HW,2013-03-22 16:56:00,
2013-03-22 13:01:00,33.8,23.6,29.93,WSW,248,6.0,9.2,66,0.00,,,0.00,WUHU216HW,2013-03-22 17:01:00,
2013-03-22 13:06:00,34.0,23.8,29.93,West,270,4.0,9.2,66,0.00,,,0.00,WUHU216HW,2013-03-22 17:06:00,
2013-03-22 13:11:00,34.0,23.4,29.93,NW,315,5.4,8.5,65,0.00,,,0.00,WUHU216HW,2013-03-22 17:11:00,
2013-03-22 13:16:00,34.6,24.3,29.93,NNW,338,2.9,8.5,66,0.00,,,0.00,WUHU216HW,2013-03-22 17:16:00,
2013-03-22 13:21:00,35.3,25.0,29.94,SW,225,3.1,7.6,66,0.00,,,0.00,WUHU216HW,2013-03-22 17:21:00,
2013-03-22 13:26:00,35.5,24.5,29.94,WNW,293,4.7,12.1,64,0.00,,,0.00,WUHU216HW,2013-03-22 17:26:00,
2013-03-22 13:31:00,35.5,24.5,29.94,West,270,6.5,12.1,64,0.00,,,0.00,WUHU216HW,2013-03-22 17:31:00,
2013-03-22 13:36:00,36.2,25.2,29.94,SW,225,4.7,8.5,64,0.00,,,0.00,WUHU216HW,2013-03-22 17:36:00,
2013-03-22 13:41:00,36.9,25.8,29.94,WSW,248,1.8,7.4,64,0.00,,,0.00,WUHU216HW,2013-03-22 17:41:00,
2013-03-22 13:46:00,37.3,26.2,29.94,WNW,293,4.7,7.4,64,0.00,,,0.00,WUHU216HW,2013-03-22 17:46:00,
2013-03-22 13:51:00,37.4,26.0,29.94,NNW,338,2.2,7.8,63,0.00,,,0.00,WUHU216HW,2013-03-22 17:51:00,
2013-03-22 13:56:00,37.8,26.3,29.94,WNW,293,5.4,9.4,63,0.00,,,0.00,WUHU216HW,2013-03-22 17:56:00,
2013-03-22 14:01:00,38.0,26.5,29.94,WNW,293,2.7,9.4,63,0.00,,,0.00,WUHU216HW,2013-03-22 18:01:00,
2013-03-22 14:06:00,38.2,26.3,29.94,SW,225,4.7,8.1,62,0.00,,,0.00,WUHU216HW,2013-03-22 18:06:00,
2013-03-22 14:11:00,38.0,26.1,29.94,West,270,5.4,8.1,62,0.00,,,0.00,WUHU216HW,2013-03-22 18:11:00,
2013-03-22 14:16:00,37.8,25.9,29.94,North,0,3.4,6.9,62,0.00,,,0.00,WUHU216HW,2013-03-22 18:16:00,
2013-03-22 14:21:00,38.2,26.3,29.94,SW,225,4.7,9.6,62,0.00,,,0.00,WUHU216HW,2013-03-22 18:21:00,
2013-03-22 14:26:00,38.5,26.2,29.94,SW,225,3.1,10.1,61,0.00,,,0.00,WUHU216HW,2013-03-22 18:26:00,
2013-03-22 14:31:00,39.1,26.6,29.93,WSW,248,5.6,10.1,61,0.00,,,0.00,WUHU216HW,2013-03-22 18:31:00,
2013-03-22 14:36:00,39.6,26.8,29.93,SW,225,4.9,9.8,60,0.00,,,0.00,WUHU216HW,2013-03-22 18:36:00,
2013-03-22 14:41:00,40.0,26.7,29.94,West,270,5.4,9.8,59,0.00,,,0.00,WUHU216HW,2013-03-22 18:41:00,
2013-03-22 14:46:00,40.0,26.7,29.93,WNW,293,7.2,8.9,59,0.00,,,0.00,WUHU216HW,2013-03-22 18:46:00,
2013-03-22 14:51:00,40.0,25.8,29.93,WNW,293,6.7,8.9,57,0.00,,,0.00,WUHU216HW,2013-03-22 18:51:00,
2013-03-22 14:56:00,39.4,24.9,29.93,West,270,6.7,11.0,56,0.00,,,0.00,WUHU216HW,2013-03-22 18:56:00,
2013-03-22 15:01:00,39.4,25.4,29.93,WSW,248,7.2,11.0,57,0.00,,,0.00,WUHU216HW,2013-03-22 19:01:00,
2013-03-22 15:06:00,39.6,25.1,29.92,West,270,4.3,10.1,56,0.00,,,0.00,WUHU216HW,2013-03-22 19:06:00,
2013-03-22 15:11:00,39.8,26.1,29.92,NNW,338,5.4,9.2,58,0.00,,,0.00,WUHU216HW,2013-03-22 19:11:00,
2013-03-22 15:16:00,40.0,25.8,29.92,West,270,5.8,8.5,57,0.00,,,0.00,WUHU216HW,2013-03-22 19:16:00,
2013-03-22 15:21:00,40.0,25.4,29.92,WSW,248,4.7,8.5,56,0.00,,,0.00,WUHU216HW,2013-03-22 19:21:00,
2013-03-22 15:26:00,40.1,25.6,29.92,WNW,293,5.8,8.5,56,0.00,,,0.00,WUHU216HW,2013-03-22 19:26:00,
2013-03-22 15:31:00,40.3,25.7,29.92,NW,315,5.4,10.5,56,0.00,,,0.00,WUHU216HW,2013-03-22 19:31:00,
2013-03-22 15:36:00,40.9,26.7,29.92,WSW,248,7.6,10.5,57,0.00,,,0.00,WUHU216HW,2013-03-22 19:36:00,
2013-03-22 15:41:00,41.4,26.4,29.92,NW,315,6.0,9.2,55,0.00,,,0.00,WUHU216HW,2013-03-22 19:41:00,
2013-03-22 15:46:00,41.4,26.4,29.91,West,270,4.0,8.5,55,0.00,,,0.00,WUHU216HW,2013-03-22 19:46:00,
2013-03-22 15:51:00,41.4,26.8,29.91,NW,315,7.6,8.3,56,0.00,,,0.00,WUHU216HW,2013-03-22 19:51:00,
2013-03-22 15:56:00,41.8,26.7,29.91,West,270,6.5,8.3,55,0.00,,,0.00,WUHU216HW,2013-03-22 19:56:00,
2013-03-22 16:01:00,41.6,26.1,29.91,West,270,6.0,8.7,54,0.00,,,0.00,WUHU216HW,2013-03-22 20:01:00,
2013-03-22 16:06:00,41.6,25.7,29.91,WNW,293,5.6,10.7,53,0.00,,,0.00,WUHU216HW,2013-03-22 20:06:00,
2013-03-22 16:11:00,41.4,25.9,29.91,NNW,338,5.4,10.7,54,0.00,,,0.00,WUHU216HW,2013-03-22 20:11:00,
2013-03-22 16:16:00,41.6,26.1,29.91,WNW,293,6.3,9.8,54,0.00,,,0.00,WUHU216HW,2013-03-22 20:16:00,
2013-03-22 16:21:00,41.4,25.9,29.91,WSW,248,3.6,9.8,54,0.00,,,0.00,WUHU216HW,2013-03-22 20:21:00,
2013-03-22 16:26:00,41.6,26.1,29.91,West,270,4.9,8.7,54,0.00,,,0.00,WUHU216HW,2013-03-22 20:26:00,
2013-03-22 16:31:00,42.1,26.7,29.91,WSW,248,5.4,6.9,54,0.00,,,0.00,WUHU216HW,2013-03-22 20:31:00,
2013-03-22 16:36:00,42.5,26.6,29.91,West,270,7.4,9.2,53,0.00,,,0.00,WUHU216HW,2013-03-22 20:36:00,
2013-03-22 16:41:00,42.5,26.9,29.91,West,270,4.5,9.2,54,0.00,,,0.00,WUHU216HW,2013-03-22 20:41:00,
2013-03-22 16:46:00,42.8,27.3,29.91,WNW,293,7.6,9.8,54,0.00,,,0.00,WUHU216HW,2013-03-22 20:46:00,
2013-03-22 16:51:00,43.4,27.8,29.91,WNW,293,2.9,9.8,54,0.00,,,0.00,WUHU216HW,2013-03-22 20:51:00,
2013-03-22 16:56:00,43.4,26.9,29.91,North,0,10.1,11.2,52,0.00,,,0.00,WUHU216HW,2013-03-22 20:56:00,
2013-03-22 17:01:00,43.2,27.2,29.90,WSW,248,8.1,11.2,53,0.00,,,0.00,WUHU216HW,2013-03-22 21:01:00,
2013-03-22 17:06:00,43.9,27.9,29.90,SW,225,3.8,10.1,53,0.00,,,0.00,WUHU216HW,2013-03-22 21:06:00,
2013-03-22 17:11:00,44.8,28.7,29.90,NNW,338,5.6,8.5,53,0.00,,,0.00,WUHU216HW,2013-03-22 21:11:00,
2013-03-22 17:16:00,44.8,28.7,29.90,West,270,3.6,7.6,53,0.00,,,0.00,WUHU216HW,2013-03-22 21:16:00,
2013-03-22 17:21:00,44.5,27.9,29.91,WSW,248,4.7,8.9,52,0.00,,,0.00,WUHU216HW,2013-03-22 21:21:00,
2013-03-22 17:26:00,43.9,27.0,29.91,West,270,4.7,8.9,51,0.00,,,0.00,WUHU216HW,2013-03-22 21:26:00,
2013-03-22 17:31:00,43.6,26.6,29.91,West,270,6.3,7.8,51,0.00,,,0.00,WUHU216HW,2013-03-22 21:31:00,
2013-03-22 17:36:00,43.6,27.1,29.91,NW,315,4.5,9.2,52,0.00,,,0.00,WUHU216HW,2013-03-22 21:36:00,
2013-03-22 17:42:00,44.1,27.5,29.91,WNW,293,8.1,9.2,52,0.00,,,0.00,WUHU216HW,2013-03-22 21:42:00,
2013-03-22 17:47:00,44.5,27.9,29.91,WNW,293,6.9,9.2,52,0.00,,,0.00,WUHU216HW,2013-03-22 21:47:00,
2013-03-22 17:52:00,44.8,28.3,29.91,NNW,338,7.6,9.2,52,0.00,,,0.00,WUHU216HW,2013-03-22 21:52:00,
2013-03-22 17:57:00,45.0,27.6,29.91,West,270,9.6,9.6,50,0.00,,,0.00,WUHU216HW,2013-03-22 21:57:00,
2013-03-22 18:02:00,44.6,27.6,29.91,West,270,5.4,9.6,51,0.00,,,0.00,WUHU216HW,2013-03-22 22:02:00,
2013-03-22 18:07:00,43.9,26.6,29.91,WNW,293,7.4,9.2,50,0.00,,,0.00,WUHU216HW,2013-03-22 22:07:00,
2013-03-22 18:12:00,43.2,26.3,29.91,NW,315,5.8,8.5,51,0.00,,,0.00,WUHU216HW,2013-03-22 22:12:00,
2013-03-22 18:17:00,42.3,24.5,29.91,NW,315,6.9,10.1,49,0.00,,,0.00,WUHU216HW,2013-03-22 22:17:00,
2013-03-22 18:22:00,41.8,24.9,29.91,WSW,248,3.4,10.1,51,0.00,,,0.00,WUHU216HW,2013-03-22 22:22:00,
2013-03-22 18:27:00,41.6,24.8,29.91,West,270,3.6,5.6,51,0.00,,,0.00,WUHU216HW,2013-03-22 22:27:00,
2013-03-22 18:32:00,41.0,24.2,29.91,WNW,293,3.8,6.3,51,0.00,,,0.00,WUHU216HW,2013-03-22 22:32:00,
2013-03-22 18:37:00,40.5,24.1,29.91,WNW,293,5.4,8.1,52,0.00,,,0.00,WUHU216HW,2013-03-22 22:37:00,
2013-03-22 18:42:00,40.0,23.7,29.91,North,0,4.7,8.1,52,0.00,,,0.00,WUHU216HW,2013-03-22 22:42:00,
2013-03-22 18:47:00,39.8,24.0,29.92,North,0,4.5,7.6,53,0.00,,,0.00,WUHU216HW,2013-03-22 22:47:00,
2013-03-22 18:52:00,39.8,24.4,29.92,NW,315,4.0,7.6,54,0.00,,,0.00,WUHU216HW,2013-03-22 22:52:00,
2013-03-22 18:57:00,40.0,24.6,29.92,West,270,3.4,6.5,54,0.00,,,0.00,WUHU216HW,2013-03-22 22:57:00,
2013-03-22 19:02:00,40.3,24.8,29.92,West,270,4.5,5.8,54,0.00,,,0.00,WUHU216HW,2013-03-22 23:02:00,
2013-03-22 19:07:00,40.5,25.0,29.92,North,0,5.4,7.2,54,0.00,,,0.00,WUHU216HW,2013-03-22 23:07:00,
2013-03-22 19:12:00,40.3,24.8,29.92,NW,315,2.9,7.2,54,0.00,,,0.00,WUHU216HW,2013-03-22 23:12:00,
2013-03-22 19:17:00,39.6,24.2,29.92,North,0,4.0,7.6,54,0.00,,,0.00,WUHU216HW,2013-03-22 23:17:00,
2013-03-22 19:22:00,39.1,23.7,29.92,NW,315,2.5,7.6,54,0.00,,,0.00,WUHU216HW,2013-03-22 23:22:00,
2013-03-22 19:27:00,38.3,23.5,29.93,NNW,338,2.7,7.2,55,0.00,,,0.00,WUHU216HW,2013-03-22 23:27:00,
2013-03-22 19:32:00,37.8,23.1,29.93,West,270,3.4,7.2,55,0.00,,,0.00,WUHU216HW,2013-03-22 23:32:00,
2013-03-22 19:37:00,37.4,23.1,29.93,WNW,293,5.4,5.4,56,0.00,,,0.00,WUHU216HW,2013-03-22 23:37:00,
2013-03-22 19:42:00,36.9,22.6,29.93,West,270,2.9,5.4,56,0.00,,,0.00,WUHU216HW,2013-03-22 23:42:00,
2013-03-22 19:47:00,36.4,22.6,29.93,WNW,293,2.2,5.6,57,0.00,,,0.00,WUHU216HW,2013-03-22 23:47:00,
2013-03-22 19:52:00,36.0,22.7,29.94,NW,315,2.9,5.6,58,0.00,,,0.00,WUHU216HW,2013-03-22 23:52:00,
2013-03-22 19:57:00,35.6,22.3,29.94,NNW,338,5.4,6.5,58,0.00,,,0.00,WUHU216HW,2013-03-22 23:57:00,
2013-03-22 20:02:00,35.1,22.2,29.94,WNW,293,2.7,6.5,59,0.00,,,0.00,WUHU216HW,2013-03-23 00:02:00,
2013-03-22 20:07:00,34.9,21.6,29.94,NNW,338,2.9,5.4,58,0.00,,,0.00,WUHU216HW,2013-03-23 00:07:00,
2013-03-22 20:12:00,34.6,21.7,29.94,WNW,293,3.4,4.7,59,0.00,,,0.00,WUHU216HW,2013-03-23 00:12:00,
2013-03-22 20:17:00,34.2,21.3,29.94,WNW,293,4.3,5.1,59,0.00,,,0.00,WUHU216HW,2013-03-23 00:17:00,
2013-03-22 20:22:00,33.8,21.4,29.95,NW,315,5.4,5.4,60,0.00,,,0.00,WUHU216HW,2013-03-23 00:22:00,
2013-03-22 20:27:00,33.7,21.2,29.95,NW,315,1.8,5.4,60,0.00,,,0.00,WUHU216HW,2013-03-23 00:27:00,
2013-03-22 20:32:00,33.5,21.1,29.95,WNW,293,1.1,5.4,60,0.00,,,0.00,WUHU216HW,2013-03-23 00:32:00,
2013-03-22 20:37:00,33.1,20.8,29.95,WNW,293,1.8,3.1,60,0.00,,,0.00,WUHU216HW,2013-03-23 00:37:00,
2013-03-22 20:42:00,32.8,20.8,29.95,West,270,2.7,3.6,61,0.00,,,0.00,WUHU216HW,2013-03-23 00:42:00,
2013-03-22 20:47:00,32.6,20.6,29.96,West,270,0.9,3.6,61,0.00,,,0.00,WUHU216HW,2013-03-23 00:47:00,
2013-03-22 20:52:00,32.2,20.7,29.96,West,270,1.8,2.7,62,0.00,,,0.00,WUHU216HW,2013-03-23 00:52:00,
2013-03-22 20:57:00,32.0,20.5,29.96,WSW,248,1.1,2.5,62,0.00,,,0.00,WUHU216HW,2013-03-23 00:57:00,
2013-03-22 21:02:00,31.7,20.2,29.96,West,270,1.1,2.5,62,0.00,,,0.00,WUHU216HW,2013-03-23 01:02:00,
2013-03-22 21:07:00,31.5,20.3,29.96,WNW,293,2.5,2.9,63,0.00,,,0.00,WUHU216HW,2013-03-23 01:07:00,
2013-03-22 21:13:00,31.5,20.7,29.96,WNW,293,4.9,5.4,64,0.00,,,0.00,WUHU216HW,2013-03-23 01:13:00,
2013-03-22 21:17:00,31.3,20.5,29.97,WNW,293,1.8,5.4,64,0.00,,,0.00,WUHU216HW,2013-03-23 01:17:00,
2013-03-22 21:23:00,31.3,20.5,29.97,WSW,248,1.6,4.9,64,0.00,,,0.00,WUHU216HW,2013-03-23 01:23:00,
2013-03-22 21:28:00,31.1,20.3,29.97,WSW,248,2.0,3.4,64,0.00,,,0.00,WUHU216HW,2013-03-23 01:28:00,
2013-03-22 21:33:00,31.0,20.5,29.97,SW,225,1.8,3.4,65,0.00,,,0.00,WUHU216HW,2013-03-23 01:33:00,
2013-03-22 21:38:00,30.8,20.3,29.97,WSW,248,1.8,3.4,65,0.00,,,0.00,WUHU216HW,2013-03-23 01:38:00,
2013-03-22 21:43:00,30.6,20.2,29.97,WNW,293,2.2,3.4,65,0.00,,,0.00,WUHU216HW,2013-03-23 01:43:00,
2013-03-22 21:48:00,30.4,20.3,29.97,West,270,1.1,2.9,66,0.00,,,0.00,WUHU216HW,2013-03-23 01:48:00,
2013-03-22 21:53:00,30.4,20.3,29.97,WSW,248,3.6,3.6,66,0.00,,,0.00,WUHU216HW,2013-03-23 01:53:00,
2013-03-22 21:58:00,30.2,20.2,29.97,West,270,1.3,5.6,66,0.00,,,0.00,WUHU216HW,2013-03-23 01:58:00,
2013-03-22 22:03:00,30.1,20.0,29.97,West,270,2.2,5.6,66,0.00,,,0.00,WUHU216HW,2013-03-23 02:03:00,
2013-03-22 22:08:00,30.1,20.0,29.97,WNW,293,1.8,4.3,66,0.00,,,0.00,WUHU216HW,2013-03-23 02:08:00,
2013-03-22 22:13:00,29.9,19.8,29.97,West,270,2.5,4.7,66,0.00,,,0.00,WUHU216HW,2013-03-23 02:13:00,
2013-03-22 22:18:00,29.9,20.2,29.97,WNW,293,2.5,4.7,67,0.00,,,0.00,WUHU216HW,2013-03-23 02:18:00,
2013-03-22 22:23:00,29.9,20.2,29.98,WNW,293,1.8,4.7,67,0.00,,,0.00,WUHU216HW,2013-03-23 02:23:00,
2013-03-22 22:28:00,29.9,20.2,29.98,WNW,293,2.2,4.3,67,0.00,,,0.00,WUHU216HW,2013-03-23 02:28:00,
2013-03-22 22:33:00,29.7,20.1,29.98,WSW,248,2.9,4.0,67,0.00,,,0.00,WUHU216HW,2013-03-23 02:33:00,
2013-03-22 22:38:00,29.5,20.3,29.98,WNW,293,2.5,3.8,68,0.00,,,0.00,WUHU216HW,2013-03-23 02:38:00,
2013-03-22 22:43:00,29.5,19.9,29.97,NW,315,1.1,3.4,67,0.00,,,0.00,WUHU216HW,2013-03-23 02:43:00,
2013-03-22 22:48:00,29.2,19.9,29.97,WNW,293,1.3,2.9,68,0.00,,,0.00,WUHU216HW,2013-03-23 02:48:00,
2013-03-22 22:53:00,29.2,19.9,29.97,WNW,293,1.6,3.4,68,0.00,,,0.00,WUHU216HW,2013-03-23 02:53:00,
2013-03-22 22:58:00,29.0,19.7,29.97,WNW,293,1.6,3.4,68,0.00,,,0.00,WUHU216HW,2013-03-23 02:58:00,
2013-03-22 23:03:00,28.8,19.6,29.97,WNW,293,2.5,2.5,68,0.00,,,0.00,WUHU216HW,2013-03-23 03:03:00,
2013-03-22 23:08:00,28.6,19.8,29.97,West,270,0.9,2.5,69,0.00,,,0.00,WUHU216HW,2013-03-23 03:08:00,
2013-03-22 23:13:00,28.4,19.6,29.98,NW,315,0.7,2.5,69,0.00,,,0.00,WUHU216HW,2013-03-23 03:13:00,
2013-03-22 23:18:00,28.3,19.4,29.98,NNW,338,1.1,2.0,69,0.00,,,0.00,WUHU216HW,2013-03-23 03:18:00,
2013-03-22 23:23:00,27.9,19.1,29.98,West,270,1.3,2.7,69,0.00,,,0.00,WUHU216HW,2013-03-23 03:23:00,
2013-03-22 23:28:00,27.7,19.3,29.97,North,0,1.8,3.4,70,0.00,,,0.00,WUHU216HW,2013-03-23 03:28:00,
2013-03-22 23:33:00,27.7,19.3,29.97,NW,315,4.7,4.7,70,0.00,,,0.00,WUHU216HW,2013-03-23 03:33:00,
2013-03-22 23:38:00,27.7,19.5,29.97,North,0,1.1,5.4,71,0.00,,,0.00,WUHU216HW,2013-03-23 03:38:00,
2013-03-22 23:43:00,27.7,19.5,29.97,NNW,338,4.0,5.4,71,0.00,,,0.00,WUHU216HW,2013-03-23 03:43:00,
2013-03-22 23:48:00,27.7,19.5,29.97,NW,315,1.1,4.3,71,0.00,,,0.00,WUHU216HW,2013-03-23 03:48:00,
2013-03-22 23:53:00,27.5,19.4,29.97,NW,315,0.9,4.0,71,0.00,,,0.00,WUHU216HW,2013-03-23 03:53:00,
2013-03-22 23:58:00,27.5,19.4,29.97,WNW,293,1.6,3.6,71,0.00,,,0.00,WUHU216HW,2013-03-23 03:58:00,